BEIDOU-2 IGSO-2

Last updated on Thu Jul 03 2025 00:02:45 GMT+0000 (Coordinated Universal Time)

1 37256U 10068A 25183.62860378 -.00000216 00000+0 00000+0 0 9995 2 37256 48.1774 276.1614 0047448 213.7267 124.6915 1.00285367 53286
UTC large
Height (km)
Speed (km/s)
/
Latitude / Longitude
Inclination (degrees)
Orbital Period (minutes)
Azimuth
Elevation
Range (km)
Doppler Factor

Next 0 passes for location: London (51.5072 / 0.1276)

Sorry there are no passes over London.